This demonstration page uses our WeatherBlox Daily Observations layout. Learn more.

Hourly Observations for November 16, 2019

Temp ( °F °C ) Dew Point ( °F °C ) Humidity (%) Winds ( mph kmh ) Pressure ( in mb ) Visibility ( mi km ) Precip ( " mm )
12:15 am 00:15 Clear 40 4.6 32 0 72 72 S 10 17 30.09 1019 10 16.09344 0 0
12:35 am 00:35 Clear 40 4.3 32 0 74 74 S 10 17 30.09 1019 10 16.09344 0 0
12:55 am 00:55 Clear 39 4 32 0 75 75 S 9 15 30.09 1019 10 16.09344 0 0
1:15 am 01:15 Clear 39 3.7 32 0 77 77 S 8 13 30.09 1019 10 16.09344 0 0
1:35 am 01:35 Clear 38 3.5 32 0 78 78 S 9 15 30.09 1019 10 16.09344 0 0
1:55 am 01:55 Clear 38 3.5 32 -0.1 78 78 S 9 15 30.06 1018 10 16.09344 0 0
2:15 am 02:15 Clear 38 3.2 32 0 80 80 S 9 15 30.06 1018 10 16.09344 0 0
2:35 am 02:35 Clear 38 3.5 32 0 78 78 S 10 17 30.06 1018 10 16.09344 0 0
2:55 am 02:55 Clear 38 3.2 32 0 80 80 S 9 15 30.06 1018 10 16.09344 0 0
3:15 am 03:15 Clear 37 3 32 -0.1 80 80 SSE 7 11 30.06 1018 10 16.09344 0 0
3:35 am 03:35 Clear 37 2.8 32 -0.1 81 81 S 6 9 30.06 1018 10 16.09344 0 0
3:55 am 03:55 Clear 37 3 32 0 81 81 S 7 11 30.06 1018 10 16.09344 0 0
4:15 am 04:15 Clear 38 3.5 32 0.1 79 79 S 10 17 30.06 1018 10 16.09344 0 0
4:35 am 04:35 Clear 39 3.8 32 0.1 77 77 S 12 19 30.06 1018 10 16.09344 0 0
4:55 am 04:55 Clear 39 4 32 0 75 75 S 13 20 30.03 1017 10 16.09344 0 0
5:15 am 05:15 Clear 39 3.7 32 0 77 77 S 10 17 30.06 1018 10 16.09344 0 0
5:35 am 05:35 Clear 38 3.1 32 0 80 80 SSE 12 19 30.03 1017 10 16.09344 0 0
5:55 am 05:55 Clear 38 3.1 32 0 80 80 S 12 19 30.03 1017 10 16.09344 0 0
6:15 am 06:15 Clear 37 2.7 31 -0.3 81 81 S 9 15 30.03 1017 10 16.09344 0 0
6:35 am 06:35 Clear 36 2.1 31 -0.5 83 83 S 10 17 30.06 1018 10 16.09344 0 0
6:55 am 06:55 Clear 35 1.7 31 -0.6 85 85 S 10 17 30.06 1018 10 16.09344 0 0
7:15 am 07:15 Clear 34 1.3 31 -0.8 86 86 S 8 13 30.06 1018 10 16.09344 0 0
7:35 am 07:35 Sunny 33 0.7 30 -1 89 89 S 6 9 30.09 1019 10 16.09344 0 0
7:55 am 07:55 Sunny 34 1.2 31 -0.6 88 88 S 9 15 30.09 1019 10 16.09344 0 0
8:15 am 08:15 Sunny 35 1.8 32 -0.2 87 87 S 9 15 30.09 1019 10 16.09344 0 0
8:35 am 08:35 Sunny 37 2.8 32 0 82 82 S 12 19 30.03 1017 10 16.09344 0 0
8:55 am 08:55 Sunny 38 3.5 32 0.1 79 79 S 12 19 30.03 1017 10 16.09344 0 0
9:15 am 09:15 Sunny 40 4.2 33 0.3 76 76 S 10 17 30.03 1017 10 16.09344 0 0
9:35 am 09:35 Sunny 42 5.6 33 0.7 71 71 S 10 17 30.03 1017 10 16.09344 0 0
9:55 am 09:55 Sunny 43 6.1 33 0.6 68 68 S 12 19 30 1016 10 16.09344 0 0
10:15 am 10:15 Sunny 45 7 33 0.5 64 64 S 12 19 30 1016 10 16.09344 0 0
10:35 am 10:35 Sunny 46 7.6 33 0.6 62 62 SSW 14 22 30 1016 10 16.09344 0 0
10:55 am 10:55 Sunny 48 8.8 33 0.8 58 58 SW 9 15 30 1016 10 16.09344 0 0
11:15 am 11:15 Sunny 49 9.6 33 0.7 54 54 SW 10 17 29.97 1015 10 16.09344 0 0
11:35 am 11:35 Sunny 51 10.3 33 0.7 52 52 WSW 8 13 29.97 1015 10 16.09344 0 0
11:55 am 11:55 Sunny 52 10.9 34 1.1 51 51 SW 5 7 29.94 1014 10 16.09344 0 0
12:15 pm 12:15 Sunny 53 11.4 33 0.6 48 48 S 9 15 29.94 1014 10 16.09344 0 0
12:35 pm 12:35 Sunny 53 11.5 33 0.4 47 47 SSW 7 11 29.91 1013 10 16.09344 0 0
12:55 pm 12:55 Sunny 53 11.6 33 0.5 47 47 SSE 7 11 29.91 1013 10 16.09344 0 0
1:15 pm 13:15 Sunny 54 12.1 33 0.6 46 46 SSE 8 13 29.88 1012 10 16.09344 0 0
1:35 pm 13:35 Sunny 55 12.6 33 0.7 44 44 S 10 17 29.88 1012 10 16.09344 0 0
1:55 pm 13:55 Sunny 55 13 33 0.7 43 43 SSW 10 17 29.88 1012 10 16.09344 0 0
2:15 pm 14:15 Sunny 56 13.2 34 1 44 44 S 12 19 29.88 1012 10 16.09344 0 0
2:35 pm 14:35 Sunny 56 13.1 33 0.5 42 42 SSW 9 15 29.85 1011 10 16.09344 0 0
2:55 pm 14:55 Sunny 56 13.2 34 0.9 43 43 SW 7 11 29.85 1011 10 16.09344 0 0
3:15 pm 15:15 Sunny 57 13.8 34 1 42 42 SSW 7 11 29.85 1011 10 16.09344 0 0
3:35 pm 15:35 Sunny 57 13.7 33 0.8 42 42 SSW 5 7 29.85 1011 10 16.09344 0 0
3:55 pm 15:55 Sunny 57 13.9 34 1 42 42 S 6 9 29.85 1011 10 16.09344 0 0
4:15 pm 16:15 Sunny 56 13.5 34 1.2 43 43 S 6 9 29.85 1011 10 16.09344 0 0
4:35 pm 16:35 Sunny 55 13 34 1.1 45 45 SSW 3 6 29.88 1012 10 16.09344 0 0
4:55 pm 16:55 Sunny 54 12.4 34 1.1 46 46 Calm 29.88 1012 10 16.09344 0 0
5:15 pm 17:15 Sunny 53 11.7 34 1 48 48 Calm 29.88 1012 10 16.09344 0 0
5:35 pm 17:35 Clear 52 11 34 1 50 50 Calm 29.94 1014 10 16.09344 0 0
5:55 pm 17:55 Clear 51 10.4 34 0.9 52 52 WNW 5 7 29.94 1014 10 16.09344 0 0
6:15 pm 18:15 Clear 50 10.2 33 0.7 52 52 WNW 5 7 29.97 1015 10 16.09344 0 0
6:35 pm 18:35 Clear 52 11 35 1.4 52 52 NNW 9 15 29.97 1015 10 16.09344 0 0
6:55 pm 18:55 Clear 53 11.8 35 1.7 50 50 N 20 31 30 1016 10 16.09344 0 0
7:15 pm 19:15 Clear 53 11.5 34 1.3 50 50 N 18 30 30 1016 10 16.09344 0 0
7:35 pm 19:35 Clear 52 11.2 35 1.5 52 52 N 17 28 30 1016 10 16.09344 0 0
7:55 pm 19:55 Clear 52 11 35 1.8 53 53 N 15 24 30.03 1017 10 16.09344 0 0
8:15 pm 20:15 Clear 51 10.6 36 2 56 56 N 15 24 30.03 1017 10 16.09344 0 0
8:35 pm 20:35 Clear 51 10.5 36 2 56 56 N 14 22 30.03 1017 10 16.09344 0 0
8:55 pm 20:55 Clear 50 10 36 2 58 58 N 14 22 30.03 1017 10 16.09344 0 0
9:15 pm 21:15 Clear 49 9.7 36 2.3 60 60 N 12 19 30.09 1019 10 16.09344 0 0
9:35 pm 21:35 Clear 48 9.1 36 2.1 62 62 NNW 8 13 30.09 1019 10 16.09344 0 0
9:55 pm 21:55 Clear 46 8 35 1.9 66 66 NNW 8 13 30.09 1019 10 16.09344 0 0
10:15 pm 22:15 Clear 45 7 35 1.7 69 69 NNW 7 11 30.09 1019 10 16.09344 0 0
10:35 pm 22:35 Clear 45 7.3 36 2.1 70 70 N 9 15 30.09 1019 10 16.09344 0 0
10:55 pm 22:55 Clear 44 6.6 35 1.9 72 72 NNW 8 13 30.09 1019 10 16.09344 0 0
11:15 pm 23:15 Partly Cloudy 42 5.8 35 1.7 75 75 NW 9 15 30.15 1021 10 16.09344 0 0
11:35 pm 23:35 Mostly Cloudy 45 7.3 37 2.5 72 72 NNW 8 13 30.09 1019 10 16.09344 0 0
11:55 pm 23:55 Mostly Cloudy 46 7.7 37 2.6 70 70 NW 8 13 30.12 1020 10 16.09344 0 0

Powered by AerisWeather